Time,TemperatureF,DewpointF,PressureIn,WindDirection,WindDirectionDegrees,WindSpeedMPH,WindSpeedGustMPH,Humidity,HourlyPrecipIn,Conditions,Clouds,dailyrainin,SoftwareType,DateUTC
2013-02-22 00:00:00,20.9,16.0,29.54,WNW,292,7.0,-999.0,86,0.00,,,0.00,Rainwise IP-100,2013-02-22 05:00:00,
2013-02-22 00:05:00,20.7,16.0,29.54,NW,315,2.0,-999.0,86,0.00,,,0.00,Rainwise IP-100,2013-02-22 05:05:00,
2013-02-22 00:10:00,20.4,18.0,29.55,WNW,292,10.0,-999.0,88,0.00,,,0.00,Rainwise IP-100,2013-02-22 05:10:00,
2013-02-22 00:15:00,20.7,18.0,29.55,WNW,292,7.0,-999.0,88,0.00,,,0.00,Rainwise IP-100,2013-02-22 05:15:00,
2013-02-22 00:20:00,20.8,18.0,29.54,NNW,337,4.0,-999.0,87,0.00,,,0.00,Rainwise IP-100,2013-02-22 05:20:00,
2013-02-22 00:25:00,20.4,18.0,29.55,NNW,337,5.0,-999.0,88,0.00,,,0.00,Rainwise IP-100,2013-02-22 05:25:00,
2013-02-22 00:30:00,20.5,18.0,29.54,NNW,337,4.0,-999.0,88,0.00,,,0.00,Rainwise IP-100,2013-02-22 05:30:00,
2013-02-22 00:36:00,20.6,18.0,29.54,NNW,337,9.0,-999.0,88,0.00,,,0.00,Rainwise IP-100,2013-02-22 05:36:00,
2013-02-22 00:41:00,21.0,18.0,29.53,WNW,292,5.0,-999.0,87,0.00,,,0.00,Rainwise IP-100,2013-02-22 05:41:00,
2013-02-22 00:46:00,21.1,18.0,29.54,North,360,7.0,-999.0,87,0.00,,,0.00,Rainwise IP-100,2013-02-22 05:46:00,
2013-02-22 00:51:00,20.8,18.0,29.54,North,360,5.0,-999.0,88,0.00,,,0.00,Rainwise IP-100,2013-02-22 05:51:00,
2013-02-22 00:56:00,20.7,18.0,29.54,NW,315,4.0,-999.0,88,0.00,,,0.00,Rainwise IP-100,2013-02-22 05:56:00,
2013-02-22 01:01:00,20.2,18.0,29.55,NNE,22,1.0,-999.0,88,0.00,,,0.00,Rainwise IP-100,2013-02-22 06:01:00,
2013-02-22 01:06:00,19.7,18.0,29.54,NNW,337,4.0,-999.0,90,0.00,,,0.00,Rainwise IP-100,2013-02-22 06:06:00,
2013-02-22 01:11:00,19.6,18.0,29.54,NNW,337,5.0,-999.0,91,0.00,,,0.00,Rainwise IP-100,2013-02-22 06:11:00,
2013-02-22 01:17:00,19.4,18.0,29.54,North,360,3.0,-999.0,92,0.00,,,0.00,Rainwise IP-100,2013-02-22 06:17:00,
2013-02-22 01:22:00,19.3,18.0,29.54,North,360,1.0,-999.0,93,0.00,,,0.00,Rainwise IP-100,2013-02-22 06:22:00,
2013-02-22 01:27:00,19.4,18.0,29.54,WNW,292,3.0,-999.0,94,0.00,,,0.00,Rainwise IP-100,2013-02-22 06:27:00,
2013-02-22 01:32:00,19.5,18.0,29.54,NW,315,1.0,-999.0,92,0.00,,,0.00,Rainwise IP-100,2013-02-22 06:32:00,
2013-02-22 01:37:00,19.5,18.0,29.54,NNW,337,6.0,-999.0,92,0.00,,,0.00,Rainwise IP-100,2013-02-22 06:37:00,
2013-02-22 01:42:00,19.6,18.0,29.54,NW,315,2.0,-999.0,93,0.00,,,0.00,Rainwise IP-100,2013-02-22 06:42:00,
2013-02-22 01:47:00,19.5,18.0,29.54,NW,315,3.0,-999.0,93,0.00,,,0.00,Rainwise IP-100,2013-02-22 06:47:00,
2013-02-22 01:53:00,19.6,18.0,29.54,NW,315,4.0,-999.0,93,0.00,,,0.00,Rainwise IP-100,2013-02-22 06:53:00,
2013-02-22 01:58:00,19.8,18.0,29.54,WNW,292,5.0,-999.0,92,0.00,,,0.00,Rainwise IP-100,2013-02-22 06:58:00,
2013-02-22 02:03:00,19.7,18.0,29.55,West,270,5.0,-999.0,92,0.00,,,0.00,Rainwise IP-100,2013-02-22 07:03:00,
2013-02-22 02:08:00,19.9,18.0,29.55,West,270,6.0,-999.0,93,0.00,,,0.00,Rainwise IP-100,2013-02-22 07:08:00,
2013-02-22 02:13:00,20.4,18.0,29.55,NNW,337,4.0,-999.0,91,0.00,,,0.00,Rainwise IP-100,2013-02-22 07:13:00,
2013-02-22 02:18:00,20.6,18.0,29.54,WNW,292,6.0,-999.0,91,0.00,,,0.00,Rainwise IP-100,2013-02-22 07:18:00,
2013-02-22 02:23:00,21.0,18.0,29.54,WNW,292,5.0,-999.0,90,0.00,,,0.00,Rainwise IP-100,2013-02-22 07:23:00,
2013-02-22 02:28:00,21.1,18.0,29.54,NNW,337,6.0,-999.0,90,0.00,,,0.00,Rainwise IP-100,2013-02-22 07:28:00,
2013-02-22 02:34:00,21.3,18.0,29.54,NW,315,6.0,-999.0,90,0.00,,,0.00,Rainwise IP-100,2013-02-22 07:34:00,
2013-02-22 02:39:00,21.6,21.0,29.54,NW,315,4.0,-999.0,88,0.00,,,0.00,Rainwise IP-100,2013-02-22 07:39:00,
2013-02-22 02:44:00,21.7,21.0,29.54,NW,315,5.0,-999.0,88,0.00,,,0.00,Rainwise IP-100,2013-02-22 07:44:00,
2013-02-22 02:49:00,22.0,18.0,29.54,NNW,337,8.0,-999.0,87,0.00,,,0.00,Rainwise IP-100,2013-02-22 07:49:00,
2013-02-22 02:54:00,22.5,18.0,29.54,North,360,5.0,-999.0,86,0.00,,,0.00,Rainwise IP-100,2013-02-22 07:54:00,
2013-02-22 02:59:00,22.4,18.0,29.54,North,360,3.0,-999.0,86,0.00,,,0.00,Rainwise IP-100,2013-02-22 07:59:00,
2013-02-22 03:04:00,22.4,18.0,29.54,WSW,247,5.0,-999.0,87,0.00,,,0.00,Rainwise IP-100,2013-02-22 08:04:00,
2013-02-22 03:10:00,22.4,18.0,29.54,NNW,337,0.0,-999.0,87,0.00,,,0.00,Rainwise IP-100,2013-02-22 08:10:00,
2013-02-22 03:15:00,22.4,18.0,29.54,NNW,337,6.0,-999.0,87,0.00,,,0.00,Rainwise IP-100,2013-02-22 08:15:00,
2013-02-22 03:20:00,22.6,18.0,29.54,NW,315,8.0,-999.0,87,0.00,,,0.00,Rainwise IP-100,2013-02-22 08:20:00,
2013-02-22 03:25:00,22.7,18.0,29.54,NNW,337,4.0,-999.0,86,0.00,,,0.00,Rainwise IP-100,2013-02-22 08:25:00,
2013-02-22 03:30:00,22.7,18.0,29.54,NW,315,5.0,-999.0,86,0.00,,,0.00,Rainwise IP-100,2013-02-22 08:30:00,
2013-02-22 03:35:00,22.7,18.0,29.54,NW,315,3.0,-999.0,86,0.00,,,0.00,Rainwise IP-100,2013-02-22 08:35:00,
2013-02-22 03:40:00,22.6,18.0,29.54,NE,45,3.0,-999.0,86,0.00,,,0.00,Rainwise IP-100,2013-02-22 08:40:00,
2013-02-22 03:45:00,22.5,18.0,29.53,NW,315,4.0,-999.0,87,0.00,,,0.00,Rainwise IP-100,2013-02-22 08:45:00,
2013-02-22 03:51:00,22.5,18.0,29.53,NNW,337,5.0,-999.0,87,0.00,,,0.00,Rainwise IP-100,2013-02-22 08:51:00,
2013-02-22 03:56:00,22.4,18.0,29.53,North,360,4.0,-999.0,87,0.00,,,0.00,Rainwise IP-100,2013-02-22 08:56:00,
2013-02-22 04:01:00,22.6,18.0,29.53,NW,315,4.0,-999.0,87,0.00,,,0.00,Rainwise IP-100,2013-02-22 09:01:00,
2013-02-22 04:06:00,22.3,18.0,29.53,NW,315,3.0,-999.0,87,0.00,,,0.00,Rainwise IP-100,2013-02-22 09:06:00,
2013-02-22 04:11:00,21.9,21.0,29.53,NNE,22,1.0,-999.0,88,0.00,,,0.00,Rainwise IP-100,2013-02-22 09:11:00,
2013-02-22 04:16:00,21.8,21.0,29.53,NNE,22,6.0,-999.0,89,0.00,,,0.00,Rainwise IP-100,2013-02-22 09:16:00,
2013-02-22 04:21:00,22.0,21.0,29.53,NNE,22,2.0,-999.0,89,0.00,,,0.00,Rainwise IP-100,2013-02-22 09:21:00,
2013-02-22 04:27:00,22.1,21.0,29.53,NW,315,4.0,-999.0,89,0.00,,,0.00,Rainwise IP-100,2013-02-22 09:27:00,
2013-02-22 04:32:00,22.0,21.0,29.53,NNW,337,4.0,-999.0,89,0.00,,,0.00,Rainwise IP-100,2013-02-22 09:32:00,
2013-02-22 04:37:00,21.9,21.0,29.53,NNW,337,3.0,-999.0,89,0.00,,,0.00,Rainwise IP-100,2013-02-22 09:37:00,
2013-02-22 04:42:00,21.9,21.0,29.53,NW,315,4.0,-999.0,89,0.00,,,0.00,Rainwise IP-100,2013-02-22 09:42:00,
2013-02-22 04:47:00,21.6,21.0,29.54,NW,315,2.0,-999.0,90,0.00,,,0.00,Rainwise IP-100,2013-02-22 09:47:00,
2013-02-22 04:52:00,21.3,18.0,29.55,NW,315,3.0,-999.0,91,0.00,,,0.00,Rainwise IP-100,2013-02-22 09:52:00,
2013-02-22 04:57:00,21.5,21.0,29.55,NW,315,4.0,-999.0,90,0.00,,,0.00,Rainwise IP-100,2013-02-22 09:57:00,
2013-02-22 05:00:00,21.5,21.0,29.55,NNW,337,3.0,-999.0,90,0.00,,,0.00,Rainwise IP-100,2013-02-22 10:00:00,
2013-02-22 05:01:00,21.6,21.0,29.55,NNW,337,2.0,-999.0,90,0.00,,,0.00,Rainwise IP-100,2013-02-22 10:01:00,
2013-02-22 05:06:00,21.2,18.0,29.57,West,270,2.0,-999.0,91,0.00,,,0.00,Rainwise IP-100,2013-02-22 10:06:00,
2013-02-22 05:11:00,21.0,18.0,29.57,WNW,292,3.0,-999.0,93,0.00,,,0.00,Rainwise IP-100,2013-02-22 10:11:00,
2013-02-22 05:17:00,21.4,18.0,29.57,WNW,292,4.0,-999.0,92,0.00,,,0.00,Rainwise IP-100,2013-02-22 10:17:00,
2013-02-22 05:22:00,21.4,18.0,29.58,WNW,292,6.0,-999.0,92,0.00,,,0.00,Rainwise IP-100,2013-02-22 10:22:00,
2013-02-22 05:27:00,21.5,21.0,29.58,NW,315,2.0,-999.0,90,0.00,,,0.00,Rainwise IP-100,2013-02-22 10:27:00,
2013-02-22 05:32:00,21.1,18.0,29.59,NNW,337,2.0,-999.0,91,0.00,,,0.00,Rainwise IP-100,2013-02-22 10:32:00,
2013-02-22 05:37:00,20.9,18.0,29.60,WNW,292,2.0,-999.0,93,0.00,,,0.00,Rainwise IP-100,2013-02-22 10:37:00,
2013-02-22 05:42:00,20.9,18.0,29.60,West,270,2.0,-999.0,93,0.00,,,0.00,Rainwise IP-100,2013-02-22 10:42:00,
2013-02-22 05:47:00,20.4,18.0,29.60,West,270,0.0,-999.0,91,0.00,,,0.00,Rainwise IP-100,2013-02-22 10:47:00,
2013-02-22 05:52:00,19.6,18.0,29.60,West,270,0.0,-999.0,93,0.00,,,0.00,Rainwise IP-100,2013-02-22 10:52:00,
2013-02-22 05:58:00,18.8,18.0,29.60,West,270,0.0,-999.0,94,0.00,,,0.00,Rainwise IP-100,2013-02-22 10:58:00,
2013-02-22 06:03:00,17.9,16.0,29.60,West,270,0.0,-999.0,94,0.00,,,0.00,Rainwise IP-100,2013-02-22 11:03:00,
2013-02-22 06:08:00,16.9,18.0,29.60,West,270,2.0,-999.0,100,0.00,,,0.00,Rainwise IP-100,2013-02-22 11:08:00,
2013-02-22 06:13:00,16.6,18.0,29.61,West,270,1.0,-999.0,100,0.00,,,0.00,Rainwise IP-100,2013-02-22 11:13:00,
2013-02-22 06:18:00,16.9,18.0,29.60,West,270,0.0,-999.0,100,0.00,,,0.00,Rainwise IP-100,2013-02-22 11:18:00,
2013-02-22 06:23:00,16.6,18.0,29.60,West,270,0.0,-999.0,100,0.00,,,0.00,Rainwise IP-100,2013-02-22 11:23:00,
2013-02-22 06:28:00,16.6,18.0,29.61,West,270,0.0,-999.0,100,0.00,,,0.00,Rainwise IP-100,2013-02-22 11:28:00,
2013-02-22 06:34:00,16.5,18.0,29.62,West,270,0.0,-999.0,100,0.00,,,0.00,Rainwise IP-100,2013-02-22 11:34:00,
2013-02-22 06:39:00,16.5,18.0,29.62,West,270,0.0,-999.0,100,0.00,,,0.00,Rainwise IP-100,2013-02-22 11:39:00,
2013-02-22 06:44:00,16.5,18.0,29.62,West,270,0.0,-999.0,100,0.00,,,0.00,Rainwise IP-100,2013-02-22 11:44:00,
2013-02-22 06:49:00,16.5,18.0,29.62,West,270,0.0,-999.0,100,0.00,,,0.00,Rainwise IP-100,2013-02-22 11:49:00,
2013-02-22 06:54:00,17.9,18.0,29.62,West,270,1.0,-999.0,100,0.00,,,0.00,Rainwise IP-100,2013-02-22 11:54:00,
2013-02-22 06:59:00,18.0,18.0,29.63,West,270,0.0,-999.0,100,0.00,,,0.00,Rainwise IP-100,2013-02-22 11:59:00,
2013-02-22 07:04:00,18.2,18.0,29.63,West,270,0.0,-999.0,100,0.00,,,0.00,Rainwise IP-100,2013-02-22 12:04:00,
2013-02-22 07:09:00,18.4,18.0,29.63,West,270,2.0,-999.0,100,0.00,,,0.00,Rainwise IP-100,2013-02-22 12:09:00,
2013-02-22 07:15:00,18.9,21.0,29.63,West,270,0.0,-999.0,99,0.00,,,0.00,Rainwise IP-100,2013-02-22 12:15:00,
2013-02-22 07:20:00,19.9,21.0,29.63,West,270,1.0,-999.0,99,0.00,,,0.00,Rainwise IP-100,2013-02-22 12:20:00,
2013-02-22 07:25:00,21.2,21.0,29.63,NNW,337,0.0,-999.0,96,0.00,,,0.00,Rainwise IP-100,2013-02-22 12:25:00,
2013-02-22 07:30:00,21.9,21.0,29.63,WNW,292,3.0,-999.0,95,0.00,,,0.00,Rainwise IP-100,2013-02-22 12:30:00,
2013-02-22 07:35:00,22.9,18.0,29.63,WSW,247,3.0,-999.0,87,0.00,,,0.00,Rainwise IP-100,2013-02-22 12:35:00,
2013-02-22 07:40:00,23.2,18.0,29.63,West,270,4.0,-999.0,85,0.00,,,0.00,Rainwise IP-100,2013-02-22 12:40:00,
2013-02-22 07:45:00,23.9,21.0,29.63,WNW,292,2.0,-999.0,84,0.00,,,0.00,Rainwise IP-100,2013-02-22 12:45:00,
2013-02-22 07:51:00,24.6,21.0,29.64,NW,315,5.0,-999.0,81,0.00,,,0.00,Rainwise IP-100,2013-02-22 12:51:00,
2013-02-22 07:56:00,25.5,21.0,29.64,North,360,5.0,-999.0,82,0.00,,,0.00,Rainwise IP-100,2013-02-22 12:56:00,
2013-02-22 08:01:00,25.9,21.0,29.64,NW,315,5.0,-999.0,78,0.00,,,0.00,Rainwise IP-100,2013-02-22 13:01:00,
2013-02-22 08:06:00,26.6,23.0,29.64,North,360,2.0,-999.0,77,0.00,,,0.00,Rainwise IP-100,2013-02-22 13:06:00,
2013-02-22 08:11:00,26.8,21.0,29.64,NW,315,6.0,-999.0,75,0.00,,,0.00,Rainwise IP-100,2013-02-22 13:11:00,
2013-02-22 08:16:00,27.1,21.0,29.64,North,360,4.0,-999.0,76,0.00,,,0.00,Rainwise IP-100,2013-02-22 13:16:00,
2013-02-22 08:21:00,27.7,21.0,29.64,East,90,1.0,-999.0,73,0.00,,,0.00,Rainwise IP-100,2013-02-22 13:21:00,
2013-02-22 08:26:00,28.1,21.0,29.65,North,360,3.0,-999.0,73,0.00,,,0.00,Rainwise IP-100,2013-02-22 13:26:00,
2013-02-22 08:32:00,28.2,21.0,29.65,NW,315,4.0,-999.0,72,0.00,,,0.00,Rainwise IP-100,2013-02-22 13:32:00,
2013-02-22 08:37:00,28.3,21.0,29.65,NNE,22,7.0,-999.0,71,0.00,,,0.00,Rainwise IP-100,2013-02-22 13:37:00,
2013-02-22 08:42:00,27.9,21.0,29.65,NE,45,9.0,-999.0,72,0.00,,,0.00,Rainwise IP-100,2013-02-22 13:42:00,
2013-02-22 08:47:00,27.4,21.0,29.65,NNW,337,2.0,-999.0,73,0.00,,,0.00,Rainwise IP-100,2013-02-22 13:47:00,
2013-02-22 08:52:00,27.2,21.0,29.64,NNE,22,6.0,-999.0,73,0.00,,,0.00,Rainwise IP-100,2013-02-22 13:52:00,
2013-02-22 08:57:00,27.1,21.0,29.64,NNE,22,6.0,-999.0,74,0.00,,,0.00,Rainwise IP-100,2013-02-22 13:57:00,
2013-02-22 09:02:00,27.1,21.0,29.64,NNE,22,4.0,-999.0,75,0.00,,,0.00,Rainwise IP-100,2013-02-22 14:02:00,
2013-02-22 09:07:00,27.1,21.0,29.64,NE,45,7.0,-999.0,74,0.00,,,0.00,Rainwise IP-100,2013-02-22 14:07:00,
2013-02-22 09:13:00,27.2,21.0,29.64,NE,45,5.0,-999.0,74,0.00,,,0.00,Rainwise IP-100,2013-02-22 14:13:00,
2013-02-22 09:18:00,27.4,21.0,29.64,NE,45,6.0,-999.0,75,0.00,,,0.00,Rainwise IP-100,2013-02-22 14:18:00,
2013-02-22 09:23:00,27.9,21.0,29.64,North,360,5.0,-999.0,73,0.00,,,0.00,Rainwise IP-100,2013-02-22 14:23:00,
2013-02-22 09:28:00,28.4,21.0,29.64,NE,45,6.0,-999.0,72,0.00,,,0.00,Rainwise IP-100,2013-02-22 14:28:00,
2013-02-22 09:33:00,28.9,23.0,29.64,NNE,22,3.0,-999.0,72,0.00,,,0.00,Rainwise IP-100,2013-02-22 14:33:00,
2013-02-22 09:38:00,30.0,23.0,29.64,NNW,337,6.0,-999.0,68,0.00,,,0.00,Rainwise IP-100,2013-02-22 14:38:00,
2013-02-22 09:43:00,30.6,23.0,29.64,NNE,22,3.0,-999.0,68,0.00,,,0.00,Rainwise IP-100,2013-02-22 14:43:00,
2013-02-22 09:49:00,31.2,21.0,29.64,NNE,22,5.0,-999.0,65,0.00,,,0.00,Rainwise IP-100,2013-02-22 14:49:00,
2013-02-22 09:54:00,31.3,21.0,29.64,North,360,3.0,-999.0,67,0.00,,,0.00,Rainwise IP-100,2013-02-22 14:54:00,
2013-02-22 09:59:00,32.1,21.0,29.64,North,360,6.0,-999.0,62,0.00,,,0.00,Rainwise IP-100,2013-02-22 14:59:00,
2013-02-22 10:04:00,31.9,23.0,29.64,NE,45,7.0,-999.0,64,0.00,,,0.00,Rainwise IP-100,2013-02-22 15:04:00,
2013-02-22 10:09:00,31.5,23.0,29.64,NNE,22,8.0,-999.0,65,0.00,,,0.00,Rainwise IP-100,2013-02-22 15:09:00,
2013-02-22 10:14:00,31.5,21.0,29.64,NE,45,6.0,-999.0,63,0.00,,,0.00,Rainwise IP-100,2013-02-22 15:14:00,
2013-02-22 10:19:00,32.3,23.0,29.64,NNE,22,3.0,-999.0,65,0.00,,,0.00,Rainwise IP-100,2013-02-22 15:19:00,
2013-02-22 10:24:00,34.0,24.0,29.64,NNE,22,6.0,-999.0,65,0.00,,,0.00,Rainwise IP-100,2013-02-22 15:24:00,
2013-02-22 10:30:00,34.9,21.0,29.64,NE,45,0.0,-999.0,57,0.00,,,0.00,Rainwise IP-100,2013-02-22 15:30:00,
2013-02-22 10:35:00,36.1,23.0,29.64,NE,45,4.0,-999.0,58,0.00,,,0.00,Rainwise IP-100,2013-02-22 15:35:00,
2013-02-22 10:40:00,36.4,23.0,29.64,NNE,22,3.0,-999.0,55,0.00,,,0.00,Rainwise IP-100,2013-02-22 15:40:00,
2013-02-22 10:45:00,35.6,21.0,29.63,NNE,22,4.0,-999.0,54,0.00,,,0.00,Rainwise IP-100,2013-02-22 15:45:00,
2013-02-22 10:50:00,36.1,23.0,29.63,ENE,67,4.0,-999.0,58,0.00,,,0.00,Rainwise IP-100,2013-02-22 15:50:00,
2013-02-22 10:55:00,35.4,21.0,29.63,NE,45,6.0,-999.0,54,0.00,,,0.00,Rainwise IP-100,2013-02-22 15:55:00,
2013-02-22 11:00:00,35.3,21.0,29.63,NNE,22,7.0,-999.0,55,0.00,,,0.00,Rainwise IP-100,2013-02-22 16:00:00,
2013-02-22 11:06:00,35.8,23.0,29.63,North,360,1.0,-999.0,56,0.00,,,0.00,Rainwise IP-100,2013-02-22 16:06:00,
2013-02-22 11:11:00,36.2,21.0,29.62,NNE,22,7.0,-999.0,54,0.00,,,0.00,Rainwise IP-100,2013-02-22 16:11:00,
2013-02-22 11:16:00,34.7,21.0,29.62,East,90,5.0,-999.0,56,0.00,,,0.00,Rainwise IP-100,2013-02-22 16:16:00,
2013-02-22 11:21:00,34.3,23.0,29.62,NE,45,6.0,-999.0,58,0.00,,,0.00,Rainwise IP-100,2013-02-22 16:21:00,
2013-02-22 11:26:00,34.7,21.0,29.62,NE,45,1.0,-999.0,56,0.00,,,0.00,Rainwise IP-100,2013-02-22 16:26:00,
2013-02-22 11:31:00,35.6,23.0,29.63,NNE,22,7.0,-999.0,55,0.00,,,0.00,Rainwise IP-100,2013-02-22 16:31:00,
2013-02-22 11:36:00,35.8,21.0,29.63,West,270,6.0,-999.0,54,0.00,,,0.00,Rainwise IP-100,2013-02-22 16:36:00,
2013-02-22 11:41:00,35.9,23.0,29.63,WSW,247,0.0,-999.0,58,0.00,,,0.00,Rainwise IP-100,2013-02-22 16:41:00,
2013-02-22 11:47:00,36.2,23.0,29.63,NE,45,6.0,-999.0,55,0.00,,,0.00,Rainwise IP-100,2013-02-22 16:47:00,
2013-02-22 11:52:00,35.8,21.0,29.63,ESE,112,3.0,-999.0,52,0.00,,,0.00,Rainwise IP-100,2013-02-22 16:52:00,
2013-02-22 11:57:00,34.9,18.0,29.63,West,270,3.0,-999.0,52,0.00,,,0.00,Rainwise IP-100,2013-02-22 16:57:00,
2013-02-22 12:02:00,35.5,23.0,29.63,SW,225,0.0,-999.0,56,0.00,,,0.00,Rainwise IP-100,2013-02-22 17:02:00,
2013-02-22 12:07:00,36.7,23.0,29.63,SW,225,1.0,-999.0,56,0.00,,,0.00,Rainwise IP-100,2013-02-22 17:07:00,
2013-02-22 12:12:00,37.2,21.0,29.63,SW,225,0.0,-999.0,51,0.00,,,0.00,Rainwise IP-100,2013-02-22 17:12:00,
2013-02-22 12:17:00,36.9,23.0,29.63,WSW,247,1.0,-999.0,53,0.00,,,0.00,Rainwise IP-100,2013-02-22 17:17:00,
2013-02-22 12:23:00,37.4,21.0,29.63,SW,225,6.0,-999.0,49,0.00,,,0.00,Rainwise IP-100,2013-02-22 17:23:00,
2013-02-22 12:28:00,38.2,23.0,29.62,West,270,0.0,-999.0,52,0.00,,,0.00,Rainwise IP-100,2013-02-22 17:28:00,
2013-02-22 12:33:00,39.3,21.0,29.62,NW,315,4.0,-999.0,47,0.00,,,0.00,Rainwise IP-100,2013-02-22 17:33:00,
2013-02-22 12:38:00,39.3,23.0,29.62,NW,315,0.0,-999.0,52,0.00,,,0.00,Rainwise IP-100,2013-02-22 17:38:00,
2013-02-22 12:43:00,40.5,24.0,29.62,NNE,22,0.0,-999.0,51,0.00,,,0.00,Rainwise IP-100,2013-02-22 17:43:00,
2013-02-22 12:48:00,41.2,21.0,29.62,WSW,247,2.0,-999.0,42,0.00,,,0.00,Rainwise IP-100,2013-02-22 17:48:00,
2013-02-22 12:53:00,41.1,23.0,29.62,WNW,292,2.0,-999.0,46,0.00,,,0.00,Rainwise IP-100,2013-02-22 17:53:00,
2013-02-22 12:58:00,40.9,23.0,29.62,West,270,0.0,-999.0,46,0.00,,,0.00,Rainwise IP-100,2013-02-22 17:58:00,
2013-02-22 13:04:00,39.9,21.0,29.62,North,360,4.0,-999.0,44,0.00,,,0.00,Rainwise IP-100,2013-02-22 18:04:00,
2013-02-22 13:09:00,39.6,21.0,29.62,NW,315,0.0,-999.0,45,0.00,,,0.00,Rainwise IP-100,2013-02-22 18:09:00,
2013-02-22 13:14:00,39.6,23.0,29.61,NNW,337,0.0,-999.0,49,0.00,,,0.00,Rainwise IP-100,2013-02-22 18:14:00,
2013-02-22 13:19:00,39.9,21.0,29.61,WSW,247,2.0,-999.0,43,0.00,,,0.00,Rainwise IP-100,2013-02-22 18:19:00,
2013-02-22 13:24:00,40.2,23.0,29.61,ENE,67,3.0,-999.0,46,0.00,,,0.00,Rainwise IP-100,2013-02-22 18:24:00,
2013-02-22 13:29:00,39.2,21.0,29.60,WNW,292,1.0,-999.0,47,0.00,,,0.00,Rainwise IP-100,2013-02-22 18:29:00,
2013-02-22 13:34:00,38.7,21.0,29.60,NE,45,6.0,-999.0,47,0.00,,,0.00,Rainwise IP-100,2013-02-22 18:34:00,
2013-02-22 13:40:00,38.6,23.0,29.60,ENE,67,1.0,-999.0,48,0.00,,,0.00,Rainwise IP-100,2013-02-22 18:40:00,
2013-02-22 13:45:00,38.9,21.0,29.60,NE,45,2.0,-999.0,47,0.00,,,0.00,Rainwise IP-100,2013-02-22 18:45:00,
2013-02-22 13:50:00,39.3,21.0,29.59,East,90,2.0,-999.0,47,0.00,,,0.00,Rainwise IP-100,2013-02-22 18:50:00,
2013-02-22 13:55:00,39.3,21.0,29.60,North,360,4.0,-999.0,46,0.00,,,0.00,Rainwise IP-100,2013-02-22 18:55:00,
2013-02-22 14:00:00,39.0,21.0,29.60,South,180,1.0,-999.0,47,0.00,,,0.00,Rainwise IP-100,2013-02-22 19:00:00,
2013-02-22 14:05:00,39.2,23.0,29.60,South,180,2.0,-999.0,48,0.00,,,0.00,Rainwise IP-100,2013-02-22 19:05:00,
2013-02-22 14:10:00,38.7,23.0,29.60,SSE,157,4.0,-999.0,49,0.00,,,0.00,Rainwise IP-100,2013-02-22 19:10:00,
2013-02-22 14:16:00,38.8,23.0,29.60,WSW,247,2.0,-999.0,49,0.00,,,0.00,Rainwise IP-100,2013-02-22 19:16:00,
2013-02-22 14:21:00,39.9,23.0,29.59,SE,135,0.0,-999.0,49,0.00,,,0.00,Rainwise IP-100,2013-02-22 19:21:00,
2013-02-22 14:26:00,40.9,23.0,29.60,SSW,202,2.0,-999.0,46,0.00,,,0.00,Rainwise IP-100,2013-02-22 19:26:00,
2013-02-22 14:31:00,40.9,23.0,29.60,ESE,112,4.0,-999.0,46,0.00,,,0.00,Rainwise IP-100,2013-02-22 19:31:00,
2013-02-22 14:36:00,40.5,21.0,29.60,SW,225,2.0,-999.0,44,0.00,,,0.00,Rainwise IP-100,2013-02-22 19:36:00,
2013-02-22 14:41:00,41.9,21.0,29.60,SW,225,0.0,-999.0,41,0.00,,,0.00,Rainwise IP-100,2013-02-22 19:41:00,
2013-02-22 14:46:00,42.2,21.0,29.61,WSW,247,0.0,-999.0,41,0.00,,,0.00,Rainwise IP-100,2013-02-22 19:46:00,
2013-02-22 14:51:00,41.6,21.0,29.61,North,360,3.0,-999.0,41,0.00,,,0.00,Rainwise IP-100,2013-02-22 19:51:00,
2013-02-22 14:57:00,40.8,21.0,29.60,NE,45,6.0,-999.0,42,0.00,,,0.00,Rainwise IP-100,2013-02-22 19:57:00,
2013-02-22 15:02:00,39.6,21.0,29.60,NNE,22,1.0,-999.0,45,0.00,,,0.00,Rainwise IP-100,2013-02-22 20:02:00,
2013-02-22 15:07:00,39.4,21.0,29.60,NE,45,0.0,-999.0,46,0.00,,,0.00,Rainwise IP-100,2013-02-22 20:07:00,
2013-02-22 15:12:00,39.2,21.0,29.60,NE,45,0.0,-999.0,46,0.00,,,0.00,Rainwise IP-100,2013-02-22 20:12:00,
2013-02-22 15:17:00,38.9,21.0,29.60,NE,45,0.0,-999.0,46,0.00,,,0.00,Rainwise IP-100,2013-02-22 20:17:00,
2013-02-22 15:22:00,38.3,21.0,29.59,East,90,1.0,-999.0,47,0.00,,,0.00,Rainwise IP-100,2013-02-22 20:22:00,
2013-02-22 15:27:00,37.7,21.0,29.58,ESE,112,0.0,-999.0,47,0.00,,,0.00,Rainwise IP-100,2013-02-22 20:27:00,
2013-02-22 15:33:00,37.6,21.0,29.58,NE,45,4.0,-999.0,49,0.00,,,0.00,Rainwise IP-100,2013-02-22 20:33:00,
2013-02-22 15:38:00,37.8,21.0,29.58,North,360,1.0,-999.0,47,0.00,,,0.00,Rainwise IP-100,2013-02-22 20:38:00,
2013-02-22 15:43:00,38.2,21.0,29.58,NNE,22,0.0,-999.0,48,0.00,,,0.00,Rainwise IP-100,2013-02-22 20:43:00,
2013-02-22 15:48:00,38.1,21.0,29.58,NNE,22,1.0,-999.0,47,0.00,,,0.00,Rainwise IP-100,2013-02-22 20:48:00,
2013-02-22 15:53:00,37.9,21.0,29.58,NNE,22,0.0,-999.0,48,0.00,,,0.00,Rainwise IP-100,2013-02-22 20:53:00,
2013-02-22 15:58:00,38.3,21.0,29.57,NNE,22,0.0,-999.0,49,0.00,,,0.00,Rainwise IP-100,2013-02-22 20:58:00,
2013-02-22 16:03:00,39.5,21.0,29.57,NW,315,3.0,-999.0,44,0.00,,,0.00,Rainwise IP-100,2013-02-22 21:03:00,
2013-02-22 16:08:00,40.1,23.0,29.57,NE,45,1.0,-999.0,46,0.00,,,0.00,Rainwise IP-100,2013-02-22 21:08:00,
2013-02-22 16:14:00,39.9,21.0,29.57,East,90,3.0,-999.0,44,0.00,,,0.00,Rainwise IP-100,2013-02-22 21:14:00,
2013-02-22 16:19:00,39.1,21.0,29.57,SSE,157,0.0,-999.0,47,0.00,,,0.00,Rainwise IP-100,2013-02-22 21:19:00,
2013-02-22 16:24:00,38.5,21.0,29.57,WSW,247,0.0,-999.0,46,0.00,,,0.00,Rainwise IP-100,2013-02-22 21:24:00,
2013-02-22 16:29:00,37.9,21.0,29.57,WSW,247,0.0,-999.0,48,0.00,,,0.00,Rainwise IP-100,2013-02-22 21:29:00,
2013-02-22 16:34:00,37.3,21.0,29.57,WSW,247,0.0,-999.0,50,0.00,,,0.00,Rainwise IP-100,2013-02-22 21:34:00,
2013-02-22 16:39:00,36.7,21.0,29.57,WSW,247,0.0,-999.0,51,0.00,,,0.00,Rainwise IP-100,2013-02-22 21:39:00,
2013-02-22 16:44:00,36.3,21.0,29.56,WSW,247,1.0,-999.0,52,0.00,,,0.00,Rainwise IP-100,2013-02-22 21:44:00,
2013-02-22 16:49:00,35.8,21.0,29.56,WSW,247,0.0,-999.0,54,0.00,,,0.00,Rainwise IP-100,2013-02-22 21:49:00,
2013-02-22 16:55:00,35.1,21.0,29.56,WSW,247,0.0,-999.0,56,0.00,,,0.00,Rainwise IP-100,2013-02-22 21:55:00,
2013-02-22 17:00:00,34.7,23.0,29.56,WSW,247,0.0,-999.0,60,0.00,,,0.00,Rainwise IP-100,2013-02-22 22:00:00,
2013-02-22 17:05:00,34.2,23.0,29.56,WSW,247,0.0,-999.0,62,0.00,,,0.00,Rainwise IP-100,2013-02-22 22:05:00,
2013-02-22 17:10:00,33.7,24.0,29.56,WSW,247,2.0,-999.0,65,0.00,,,0.00,Rainwise IP-100,2013-02-22 22:10:00,
2013-02-22 17:15:00,33.3,24.0,29.57,WSW,247,0.0,-999.0,66,0.00,,,0.00,Rainwise IP-100,2013-02-22 22:15:00,
2013-02-22 17:20:00,32.9,23.0,29.56,WSW,247,0.0,-999.0,64,0.00,,,0.00,Rainwise IP-100,2013-02-22 22:20:00,
2013-02-22 17:25:00,32.5,24.0,29.56,WSW,247,2.0,-999.0,69,0.00,,,0.00,Rainwise IP-100,2013-02-22 22:25:00,
2013-02-22 17:30:00,32.1,23.0,29.56,WSW,247,0.0,-999.0,66,0.00,,,0.00,Rainwise IP-100,2013-02-22 22:30:00,
2013-02-22 17:36:00,31.4,21.0,29.56,WSW,247,0.0,-999.0,65,0.00,,,0.00,Rainwise IP-100,2013-02-22 22:36:00,
2013-02-22 17:41:00,30.9,21.0,29.55,WSW,247,0.0,-999.0,67,0.00,,,0.00,Rainwise IP-100,2013-02-22 22:41:00,
2013-02-22 17:46:00,30.5,23.0,29.55,WSW,247,2.0,-999.0,70,0.00,,,0.00,Rainwise IP-100,2013-02-22 22:46:00,
2013-02-22 17:51:00,30.6,23.0,29.56,WSW,247,0.0,-999.0,72,0.00,,,0.00,Rainwise IP-100,2013-02-22 22:51:00,
2013-02-22 17:56:00,30.3,23.0,29.56,WSW,247,0.0,-999.0,73,0.00,,,0.00,Rainwise IP-100,2013-02-22 22:56:00,
2013-02-22 18:01:00,29.7,23.0,29.56,WSW,247,0.0,-999.0,72,0.00,,,0.00,Rainwise IP-100,2013-02-22 23:01:00,
2013-02-22 18:06:00,29.2,23.0,29.56,WSW,247,0.0,-999.0,74,0.00,,,0.00,Rainwise IP-100,2013-02-22 23:06:00,
2013-02-22 18:12:00,28.7,23.0,29.56,WSW,247,0.0,-999.0,74,0.00,,,0.00,Rainwise IP-100,2013-02-22 23:12:00,
2013-02-22 18:17:00,28.4,23.0,29.56,WSW,247,0.0,-999.0,78,0.00,,,0.00,Rainwise IP-100,2013-02-22 23:17:00,
2013-02-22 18:22:00,28.3,23.0,29.56,WSW,247,0.0,-999.0,80,0.00,,,0.00,Rainwise IP-100,2013-02-22 23:22:00,
2013-02-22 18:27:00,28.3,23.0,29.56,WSW,247,0.0,-999.0,80,0.00,,,0.00,Rainwise IP-100,2013-02-22 23:27:00,
2013-02-22 18:32:00,28.5,23.0,29.56,WSW,247,0.0,-999.0,78,0.00,,,0.00,Rainwise IP-100,2013-02-22 23:32:00,
2013-02-22 18:37:00,28.3,23.0,29.56,WSW,247,0.0,-999.0,77,0.00,,,0.00,Rainwise IP-100,2013-02-22 23:37:00,
2013-02-22 18:42:00,28.3,23.0,29.55,WSW,247,0.0,-999.0,78,0.00,,,0.00,Rainwise IP-100,2013-02-22 23:42:00,
2013-02-22 18:47:00,28.1,23.0,29.55,WSW,247,2.0,-999.0,80,0.00,,,0.00,Rainwise IP-100,2013-02-22 23:47:00,
2013-02-22 18:53:00,28.4,23.0,29.55,WSW,247,2.0,-999.0,78,0.00,,,0.00,Rainwise IP-100,2013-02-22 23:53:00,
2013-02-22 18:58:00,28.6,24.0,29.55,WSW,247,0.0,-999.0,80,0.00,,,0.00,Rainwise IP-100,2013-02-22 23:58:00,
2013-02-22 19:03:00,28.6,24.0,29.55,WSW,247,1.0,-999.0,79,0.00,,,0.00,Rainwise IP-100,2013-02-23 00:03:00,
2013-02-22 19:08:00,28.9,23.0,29.56,WSW,247,0.0,-999.0,78,0.00,,,0.00,Rainwise IP-100,2013-02-23 00:08:00,
2013-02-22 19:13:00,29.3,23.0,29.56,WSW,247,0.0,-999.0,75,0.00,,,0.00,Rainwise IP-100,2013-02-23 00:13:00,
2013-02-22 19:18:00,29.6,23.0,29.56,SW,225,0.0,-999.0,73,0.00,,,0.00,Rainwise IP-100,2013-02-23 00:18:00,
2013-02-22 19:23:00,29.9,23.0,29.56,ESE,112,1.0,-999.0,72,0.00,,,0.00,Rainwise IP-100,2013-02-23 00:23:00,
2013-02-22 19:29:00,30.5,23.0,29.56,ENE,67,2.0,-999.0,71,0.00,,,0.00,Rainwise IP-100,2013-02-23 00:29:00,
2013-02-22 19:34:00,30.7,23.0,29.55,ENE,67,1.0,-999.0,72,0.00,,,0.00,Rainwise IP-100,2013-02-23 00:34:00,
2013-02-22 19:39:00,30.6,23.0,29.55,ENE,67,0.0,-999.0,72,0.00,,,0.00,Rainwise IP-100,2013-02-23 00:39:00,
2013-02-22 19:44:00,30.5,23.0,29.56,ENE,67,0.0,-999.0,73,0.00,,,0.00,Rainwise IP-100,2013-02-23 00:44:00,
2013-02-22 19:49:00,30.3,23.0,29.56,ENE,67,0.0,-999.0,73,0.00,,,0.00,Rainwise IP-100,2013-02-23 00:49:00,
2013-02-22 19:54:00,30.1,23.0,29.56,ENE,67,0.0,-999.0,73,0.00,,,0.00,Rainwise IP-100,2013-02-23 00:54:00,
2013-02-22 19:59:00,29.8,23.0,29.56,NW,315,0.0,-999.0,73,0.00,,,0.00,Rainwise IP-100,2013-02-23 00:59:00,
2013-02-22 20:04:00,29.7,23.0,29.56,SSW,202,2.0,-999.0,71,0.00,,,0.00,Rainwise IP-100,2013-02-23 01:04:00,
2013-02-22 20:09:00,30.1,23.0,29.56,SW,225,0.0,-999.0,71,0.00,,,0.00,Rainwise IP-100,2013-02-23 01:09:00,
2013-02-22 20:15:00,30.2,23.0,29.56,SW,225,0.0,-999.0,70,0.00,,,0.00,Rainwise IP-100,2013-02-23 01:15:00,
2013-02-22 20:20:00,30.2,23.0,29.56,SW,225,0.0,-999.0,69,0.00,,,0.00,Rainwise IP-100,2013-02-23 01:20:00,
2013-02-22 20:25:00,30.3,23.0,29.56,SW,225,0.0,-999.0,70,0.00,,,0.00,Rainwise IP-100,2013-02-23 01:25:00,
2013-02-22 20:30:00,30.2,23.0,29.56,SW,225,0.0,-999.0,70,0.00,,,0.00,Rainwise IP-100,2013-02-23 01:30:00,
2013-02-22 20:35:00,30.0,23.0,29.56,SW,225,0.0,-999.0,70,0.00,,,0.00,Rainwise IP-100,2013-02-23 01:35:00,
2013-02-22 20:40:00,29.9,23.0,29.56,SW,225,0.0,-999.0,71,0.00,,,0.00,Rainwise IP-100,2013-02-23 01:40:00,
2013-02-22 20:45:00,30.1,23.0,29.55,ENE,67,0.0,-999.0,70,0.00,,,0.00,Rainwise IP-100,2013-02-23 01:45:00,
2013-02-22 20:50:00,30.1,23.0,29.56,ENE,67,0.0,-999.0,70,0.00,,,0.00,Rainwise IP-100,2013-02-23 01:50:00,
2013-02-22 20:56:00,30.1,23.0,29.55,ENE,67,0.0,-999.0,71,0.00,,,0.00,Rainwise IP-100,2013-02-23 01:56:00,
2013-02-22 21:01:00,29.9,23.0,29.55,SSW,202,1.0,-999.0,70,0.00,,,0.00,Rainwise IP-100,2013-02-23 02:01:00,
2013-02-22 21:06:00,30.0,23.0,29.55,SSW,202,0.0,-999.0,70,0.00,,,0.00,Rainwise IP-100,2013-02-23 02:06:00,
2013-02-22 21:11:00,29.9,23.0,29.55,SSW,202,0.0,-999.0,71,0.00,,,0.00,Rainwise IP-100,2013-02-23 02:11:00,
2013-02-22 21:16:00,30.0,23.0,29.56,SSW,202,0.0,-999.0,70,0.00,,,0.00,Rainwise IP-100,2013-02-23 02:16:00,
2013-02-22 21:21:00,30.2,23.0,29.56,SSW,202,0.0,-999.0,69,0.00,,,0.00,Rainwise IP-100,2013-02-23 02:21:00,
2013-02-22 21:26:00,30.6,21.0,29.56,South,180,3.0,-999.0,67,0.00,,,0.00,Rainwise IP-100,2013-02-23 02:26:00,
2013-02-22 21:32:00,30.9,21.0,29.55,SSE,157,0.0,-999.0,67,0.00,,,0.00,Rainwise IP-100,2013-02-23 02:32:00,
2013-02-22 21:37:00,30.9,21.0,29.55,ESE,112,0.0,-999.0,67,0.00,,,0.00,Rainwise IP-100,2013-02-23 02:37:00,
2013-02-22 21:42:00,30.7,23.0,29.56,ESE,112,0.0,-999.0,68,0.00,,,0.00,Rainwise IP-100,2013-02-23 02:42:00,
2013-02-22 21:47:00,30.3,23.0,29.56,South,180,0.0,-999.0,68,0.00,,,0.00,Rainwise IP-100,2013-02-23 02:47:00,
2013-02-22 21:52:00,29.9,23.0,29.56,South,180,3.0,-999.0,69,0.00,,,0.00,Rainwise IP-100,2013-02-23 02:52:00,
2013-02-22 21:57:00,30.1,23.0,29.55,SSW,202,0.0,-999.0,69,0.00,,,0.00,Rainwise IP-100,2013-02-23 02:57:00,
2013-02-22 22:02:00,30.2,23.0,29.55,SSW,202,2.0,-999.0,68,0.00,,,0.00,Rainwise IP-100,2013-02-23 03:02:00,
2013-02-22 22:07:00,30.7,23.0,29.55,South,180,1.0,-999.0,68,0.00,,,0.00,Rainwise IP-100,2013-02-23 03:07:00,
2013-02-22 22:13:00,30.8,21.0,29.55,ESE,112,0.0,-999.0,67,0.00,,,0.00,Rainwise IP-100,2013-02-23 03:13:00,
2013-02-22 22:18:00,30.8,21.0,29.55,South,180,0.0,-999.0,66,0.00,,,0.00,Rainwise IP-100,2013-02-23 03:18:00,
2013-02-22 22:23:00,30.4,21.0,29.55,South,180,1.0,-999.0,67,0.00,,,0.00,Rainwise IP-100,2013-02-23 03:23:00,
2013-02-22 22:28:00,30.3,23.0,29.55,SW,225,0.0,-999.0,68,0.00,,,0.00,Rainwise IP-100,2013-02-23 03:28:00,
2013-02-22 22:33:00,29.9,23.0,29.55,South,180,4.0,-999.0,68,0.00,,,0.00,Rainwise IP-100,2013-02-23 03:33:00,
2013-02-22 22:38:00,29.8,23.0,29.55,SSE,157,2.0,-999.0,69,0.00,,,0.00,Rainwise IP-100,2013-02-23 03:38:00,
2013-02-22 22:43:00,29.6,23.0,29.55,South,180,0.0,-999.0,70,0.00,,,0.00,Rainwise IP-100,2013-02-23 03:43:00,
2013-02-22 22:49:00,29.5,23.0,29.55,SSE,157,3.0,-999.0,70,0.00,,,0.00,Rainwise IP-100,2013-02-23 03:49:00,
2013-02-22 22:54:00,29.6,23.0,29.55,SSW,202,0.0,-999.0,70,0.00,,,0.00,Rainwise IP-100,2013-02-23 03:54:00,
2013-02-22 22:59:00,29.8,23.0,29.55,SE,135,0.0,-999.0,70,0.00,,,0.00,Rainwise IP-100,2013-02-23 03:59:00,
2013-02-22 23:04:00,30.0,23.0,29.55,South,180,4.0,-999.0,70,0.00,,,0.00,Rainwise IP-100,2013-02-23 04:04:00,
2013-02-22 23:09:00,30.2,23.0,29.55,SE,135,1.0,-999.0,70,0.00,,,0.00,Rainwise IP-100,2013-02-23 04:09:00,
2013-02-22 23:14:00,30.3,23.0,29.55,South,180,4.0,-999.0,70,0.00,,,0.00,Rainwise IP-100,2013-02-23 04:14:00,
2013-02-22 23:19:00,30.5,23.0,29.55,South,180,3.0,-999.0,70,0.00,,,0.00,Rainwise IP-100,2013-02-23 04:19:00,
2013-02-22 23:24:00,30.6,23.0,29.55,SSE,157,4.0,-999.0,70,0.00,,,0.00,Rainwise IP-100,2013-02-23 04:24:00,
2013-02-22 23:30:00,30.6,23.0,29.55,South,180,2.0,-999.0,70,0.00,,,0.00,Rainwise IP-100,2013-02-23 04:30:00,
2013-02-22 23:35:00,30.4,23.0,29.55,WSW,247,4.0,-999.0,72,0.00,,,0.00,Rainwise IP-100,2013-02-23 04:35:00,
2013-02-22 23:40:00,30.5,23.0,29.55,South,180,3.0,-999.0,72,0.00,,,0.00,Rainwise IP-100,2013-02-23 04:40:00,
2013-02-22 23:45:00,30.5,24.0,29.55,SSW,202,5.0,-999.0,74,0.00,,,0.00,Rainwise IP-100,2013-02-23 04:45:00,
2013-02-22 23:50:00,30.6,23.0,29.54,WNW,292,2.0,-999.0,73,0.00,,,0.00,Rainwise IP-100,2013-02-23 04:50:00,
2013-02-22 23:55:00,30.5,23.0,29.54,SSE,157,2.0,-999.0,73,0.00,,,0.00,Rainwise IP-100,2013-02-23 04:55:00,